Regional Weather Roundup
Issued by NWS Charleston, WV

Home | Current Version | Previous Version | Text Only | Print | Product List | Glossary Off
Versions: 1 2 3 4 5 6 7 8 9 10 11 12 13 14 15 16 17 18 19 20 21 22 23 24 25 26 27 28 29 30 31 32 33 34 35 36 37 38 39 40 41 42 43 44 45 46 47 48 49 50

000
ASUS41 KRLX 040610
RWRRLX
West Virginia Regional Weather Roundup
National Weather Service Charleston WV
100 AM EST WED MAR 04 2015

Note: "fair" indicates few or no clouds below 12,000 feet with no
significant weather and/or obstructions to visibility.

WVZ003-040700-
Northern Panhandle of West Virginia

CITY           SKY/WX    TMP DP  RH WIND       PRES   REMARKS
WHEELING       LGT RAIN  43  40  89 W12       29.79S
$$

WVZ009-040700-
Northwest West Virginia

CITY           SKY/WX    TMP DP  RH WIND       PRES   REMARKS
PARKERSBURG    LGT RAIN  47  45  93 W12       29.85R
$$

WVZ006-040700-
Western West Virginia

CITY           SKY/WX    TMP DP  RH WIND       PRES   REMARKS
HUNTINGTON     HVY RAIN  52  51  97 CALM      29.83S FOG
$$

WVZ015-040700-
West Central West Virginia

CITY           SKY/WX    TMP DP  RH WIND       PRES   REMARKS
CHARLESTON     LGT RAIN  56  54  93 VRB5      29.81S FOG
$$

WVZ022-031-040700-
North Central West Virginia

CITY           SKY/WX    TMP DP  RH WIND       PRES   REMARKS
CLARKSBURG     LGT RAIN  51  49  92 W9G18     29.80S
MORGANTOWN     LGT RAIN  51  47  86 CALM      29.79S
$$

WVZ025-035-042-045-040700-
Southern West Virginia

CITY           SKY/WX    TMP DP  RH WIND       PRES   REMARKS
BECKLEY        RAIN      50  49  96 SW13      29.87F FOG
LOGAN          LGT RAIN  54  54 100 S5        29.82S VSB 1/4
BLUEFIELD      CLOUDY    58  51  78 W17G30    29.90F
LEWISBURG      MIX PCPN  36  34  95 N3        29.89F
$$

WVZ047-040700-
Northern Mountains of West Virginia

CITY           SKY/WX    TMP DP  RH WIND       PRES   REMARKS
ELKINS         HVY RAIN  53  52  96 NW18G26   29.81R FOG
$$

WVZ052-040700-
Eastern Panhandle of West Virginia

CITY           SKY/WX    TMP DP  RH WIND       PRES   REMARKS
MARTINSBURG    CLOUDY    39  31  72 CALM      29.78F
PETERSBURG     CLOUDY    56  44  65 S16G24    29.73S
$$



USA.gov is the U.S. government's official web portal to all federal, state and local government web resources and services.